Regional Weather Roundup
Issued by NWS

Home | Current Version | Previous Version | Graphics & Text | Print | Product List | Glossary On
Versions: 1 2 3 4 5 6 7 8 9 10 11 12 13 14 15 16 17 18 19 20 21 22 23 24 25 26 27 28 29 30 31 32 33 34 35 36 37 38 39 40 41 42 43 44 45 46 47 48 49 50
000
ASUS43 KLMK 271202
RWRKY
KENTUCKY REGIONAL WEATHER ROUNDUP
NATIONAL WEATHER SERVICE LOUISVILLE KY
800 AM EDT THU AUG 27 2015

NOTE "FAIR" INDICATES FEW OR NO CLOUDS BELOW 12,000 FEET
WITH NO SIGNIFICANT WEATHER AND/OR OBSTRUCTIONS TO VISIBILITY.

KYZ001>023-026-027-061>063-070>075-271300-
WESTERN AND SOUTH CENTRAL KENTUCKY

CITY           SKY/WX    TMP DP  RH WIND       PRES   REMARKS
PADUCAH        CLEAR     55  53  93 CALM      30.14R
HENDERSON      CLEAR     55  52  88 CALM      30.14R
OWENSBORO      CLEAR     59  57  92 CALM      30.15R
HOPKINSVILLE   CLEAR     56  55  95 CALM      30.13R
BOWLING GREEN  CLEAR     56  55  97 CALM      30.14R FOG
GLASGOW        CLEAR     56  56 100 NE3       30.15R
$$

KYZ024-025-028>034-038-045-046-053-271300-
NORTH CENTRAL KENTUCKY

CITY           SKY/WX    TMP DP  RH WIND       PRES   REMARKS
LOUISVILLE/SDF PTCLDY    65  56  72 E5        30.15R
LOUISVILLE/LOU CLEAR     64  57  78 CALM      30.16R
FORT KNOX      CLEAR     57  55  93 E2        30.14R
$$

KYZ035>037-039>044-047>052-055>060-089>105-271300-
NORTHEAST KENTUCKY

CITY           SKY/WX    TMP DP  RH WIND       PRES   REMARKS
LEXINGTON      SUNNY     57  54  89 CALM      30.17R
COVINGTON      CLOUDY    62  57  83 CALM      30.17S
FRANKFORT      CLEAR     57  54  89 CALM      30.16R
$$

KYZ054-064>069-076>088-106>120-271300-
SOUTHEAST KENTUCKY

CITY           SKY/WX    TMP DP  RH WIND       PRES   REMARKS
JACKSON        SUNNY     57  54  89 CALM      30.17R
LONDON         SUNNY     57  52  83 CALM      30.16R
SOMERSET       NOT AVBL
MIDDLESBORO    FOG       54  54 100 CALM      30.16R VSB 1/4
MONTICELLO     SUNNY     54  54 100 CALM      30.18R FOG
$$



USA.gov is the U.S. government's official web portal to all federal, state and local government web resources and services.